DW5490 Weather Reports


time (UTC)temp
C
wind
direction
speed
KPH
gust
KPH
rain 1hr
cm
rain 24hr
cm
rain mn
cm
humidity
%
barometer
mb
20260505070029 10 213 8.0 14.5 0.00 0.00 0.00 86 1010.6
20260505064540 10 240 8.0 16.1 0.00 0.00 0.00 85 1010.7
20260505063011 10 229 4.8 9.7 0.00 0.00 0.00 85 1010.6
20260505061546 10 245 8.0 14.5 0.00 0.00 0.00 84 1010.7
20260505060039 11 253 6.4 17.7 0.00 0.00 0.00 82 1010.7
20260505054552 11 245 6.4 14.5 0.00 0.00 0.00 82 1010.7
20260505053053 11 252 6.4 11.3 0.00 0.00 0.00 81 1010.7
20260505051538 11 246 6.4 17.7 0.00 0.00 0.00 80 1010.7
20260505041536 11 263 9.7 17.7 0.00 0.00 0.00 78 1010.9
20260505040019 11 267 8.0 17.7 0.00 0.00 0.00 78 1010.9
20260505034506 11 230 9.7 17.7 0.00 0.00 0.00 77 1010.7
20260505033110 11 240 8.0 22.5 0.00 0.00 0.00 76 1010.7
20260505031558 12 222 11.3 24.1 0.00 0.00 0.00 76 1010.7
20260505030106 12 246 8.0 19.3 0.00 0.00 0.00 75 1010.9
20260505024521 12 232 8.0 19.3 0.00 0.00 0.00 73 1011.0
20260505023028 12 220 6.4 19.3 0.00 0.00 0.00 71 1010.9
20260505021545 12 216 9.7 19.3 0.00 0.00 0.00 70 1010.9
20260505020035 13 224 8.0 16.1 0.00 0.00 0.00 68 1010.9
20260505014536 13 243 9.7 19.3 0.00 0.00 0.00 66 1010.8
20260505013036 13 258 8.0 24.1 0.00 0.00 0.00 64 1010.7
20260505011551 13 242 9.7 20.9 0.00 0.00 0.00 62 1010.5
20260505010029 13 236 6.4 12.9 0.00 0.00 0.00 61 1010.2
20260505004604 14 224 9.7 17.7 0.00 0.00 0.00 59 1010.0
20260505003101 15 241 12.9 22.5 0.00 0.00 0.00 57 1009.6
20260505001604 15 187 11.3 24.1 0.00 0.00 0.00 56 1009.1
20260505000100 15 201 14.5 24.1 0.00 0.00 0.00 54 1008.9
20260504234509 16 260 14.5 25.7 0.00 0.00 0.00 54 1008.9
20260504233023 16 213 11.3 25.7 0.00 0.00 0.00 53 1008.6
20260504231528 17 182 8.0 22.5 0.00 0.00 0.00 52 1008.2
20260504230016 17 267 6.4 32.2 0.00 0.00 0.00 50 1007.9
20260504224504 18 209 11.3 32.2 0.00 0.00 0.00 48 1007.7
20260504223114 18 166 11.3 29.0 0.00 0.00 0.00 47 1007.5
20260504221506 18 201 20.9 41.8 0.00 0.00 0.00 44 1007.4
20260504220124 19 228 19.3 37.0 0.00 0.00 0.00 43 1007.3
20260504214600 19 215 19.3 32.2 0.00 0.00 0.00 41 1007.4
20260504213100 20 188 20.9 38.6 0.00 0.00 0.00 40 1007.2
20260504211551 20 213 11.3 24.1 0.00 0.00 0.00 38 1007.1
20260504210055 21 259 12.9 38.6 0.00 0.00 0.00 36 1007.1
20260504204610 20 238 14.5 35.4 0.00 0.00 0.00 35 1007.1
20260504203058 21 149 11.3 24.1 0.00 0.00 0.00 34 1007.1
20260504201537 21 262 9.7 29.0 0.00 0.00 0.00 34 1007.1
20260504200034 21 231 9.7 24.1 0.00 0.00 0.00 34 1007.1
20260504194614 21 229 16.1 33.8 0.00 0.00 0.00 33 1007.3
20260504193001 21 200 20.9 35.4 0.00 0.00 0.00 33 1007.3
20260504191557 21 266 9.7 41.8 0.00 0.00 0.00 33 1007.2
20260504190100 21 275 14.5 33.8 0.00 0.00 0.00 34 1007.4
20260504184551 20 223 12.9 32.2 0.00 0.00 0.00 34 1007.5
20260504183005 21 173 12.9 32.2 0.00 0.00 0.00 33 1007.7
20260504181509 21 256 14.5 33.8 0.00 0.00 0.00 33 1007.8
20260504180058 20 252 16.1 29.0 0.00 0.00 0.00 33 1007.9
20260504174538 20 252 20.9 35.4 0.00 0.00 0.00 33 1007.9
20260504173033 20 301 16.1 32.2 0.00 0.00 0.00 33 1008.0
20260504171535 19 291 12.9 41.8 0.00 0.00 0.00 34 1007.9
20260504081522 8 232 1.6 8.0 0.00 0.00 0.00 58 1010.7